OK,52,76,716,52,2014-10-01T01:40:00,1,28072043,197489
OK,52,76,716,52,2014-10-01T01:45:00,0,28072486,197489
OK,52,76,716,52,2014-10-01T01:50:00,0,28072935,197489
OK,44,90,716,44,2014-10-01T01:55:00,2,28073382,197489
OK,44,90,716,44,2014-10-01T02:05:00,0,28074148,197489
OK,44,90,716,44,2014-10-01T02:10:00,0,28074597,197489
OK,44,90,716,44,2014-10-01T02:15:00,0,28075037,197489
OK,44,90,716,44,2014-10-01T02:20:00,0,28075486,197489
OK,44,90,716,44,2014-10-01T02:25:00,0,28075935,197489
OK,49,81,716,49,2014-10-01T02:30:00,1,28076318,197489
OK,49,81,716,49,2014-10-01T02:35:00,0,28076767,197489
OK,49,81,716,49,2014-10-01T02:40:00,0,28077216,197489
OK,49,81,716,49,2014-10-01T02:45:00,0,28077665,197489
OK,55,72,716,55,2014-10-01T02:50:00,1,28078068,197489
OK,55,72,716,55,2014-10-01T02:55:00,0,28078517,197489
OK,55,72,716,55,2014-10-01T03:00:00,0,28078962,197489
OK,55,72,716,55,2014-10-01T03:05:00,0,28079410,197489
OK,45,88,716,45,2014-10-01T03:10:00,1,28079853,197489
OK,34,117,716,34,2014-10-01T03:20:00,1,28080636,197489
OK,34,117,716,34,2014-10-01T03:25:00,0,28081085,197489
OK,34,117,716,34,2014-10-01T03:30:00,0,28081534,197489
OK,34,117,716,34,2014-10-01T03:35:00,0,28081981,197489
OK,32,124,716,32,2014-10-01T03:40:00,1,28082430,197489
OK,37,108,716,37,2014-10-01T03:45:00,1,28082863,197489
OK,45,88,716,45,2014-10-01T03:50:00,1,28083295,197489
OK,46,86,716,46,2014-10-01T03:55:00,2,28083744,197489
OK,47,85,716,47,2014-10-01T04:00:00,2,28084193,197489
OK,45,88,716,45,2014-10-01T04:05:00,3,28084634,197489
OK,46,86,716,46,2014-10-01T04:10:00,5,28085059,197489
OK,41,97,716,41,2014-10-01T04:15:00,7,28085508,197489
OK,45,88,716,45,2014-10-01T04:20:00,10,28085953,197489
OK,51,78,716,51,2014-10-01T04:25:00,5,28086402,197489
OK,41,97,716,41,2014-10-01T04:30:00,4,28086844,197489
OK,41,97,716,41,2014-10-01T04:35:00,9,28087293,197489
OK,45,88,716,45,2014-10-01T04:40:00,15,28087738,197489
OK,50,79,716,50,2014-10-01T04:45:00,13,28088187,197489
OK,50,79,716,50,2014-10-01T04:50:00,7,28088611,197489
OK,47,85,716,47,2014-10-01T04:55:00,15,28089060,197489
OK,46,86,716,46,2014-10-01T05:00:00,14,28089490,197489
OK,47,85,716,47,2014-10-01T05:05:00,10,28089939,197489
OK,46,86,716,46,2014-10-01T05:10:00,8,28090388,197489
OK,52,76,716,52,2014-10-01T05:15:00,9,28090732,197489
OK,48,83,716,48,2014-10-01T05:20:00,14,28091181,197489
OK,45,88,716,45,2014-10-01T05:25:00,8,28091630,197489
OK,41,97,716,41,2014-10-01T05:30:00,6,28092047,197489
OK,47,85,716,47,2014-10-01T05:35:00,14,28092496,197489
OK,46,86,716,46,2014-10-01T05:40:00,18,28092940,197489
OK,45,88,716,45,2014-10-01T05:45:00,15,28093381,197489
OK,48,83,716,48,2014-10-01T05:50:00,17,28093812,197489
OK,47,85,716,47,2014-10-01T05:55:00,14,28094261,197489
OK,51,78,716,51,2014-10-01T06:00:00,13,28094672,197489
OK,47,85,716,47,2014-10-01T06:05:00,12,28095117,197489
OK,45,88,716,45,2014-10-01T06:10:00,13,28095564,197489
OK,43,92,716,43,2014-10-01T06:15:00,20,28096013,197489
OK,43,92,716,43,2014-10-01T06:20:00,10,28096426,197489
OK,44,90,716,44,2014-10-01T06:25:00,13,28096875,197489
OK,47,85,716,47,2014-10-01T06:30:00,16,28097309,197489
OK,48,83,716,48,2014-10-01T06:35:00,12,28097758,197489
OK,48,83,716,48,2014-10-01T06:40:00,11,28098207,197489
OK,49,81,716,49,2014-10-01T06:45:00,12,28098644,197489
OK,47,85,716,47,2014-10-01T06:50:00,14,28099088,197489
OK,45,88,716,45,2014-10-01T07:00:00,13,28099879,197489
OK,49,81,716,49,2014-10-01T07:10:00,15,28100635,197489
OK,50,79,716,50,2014-10-01T07:15:00,15,28101080,197489
OK,42,95,716,42,2014-10-01T07:20:00,7,28101455,197489
OK,45,88,716,45,2014-10-01T07:25:00,6,28101904,197489
OK,50,79,716,50,2014-10-01T07:30:00,7,28102340,197489
OK,48,83,716,48,2014-10-01T07:35:00,7,28102789,197489
OK,47,85,716,47,2014-10-01T07:40:00,9,28103216,197489
OK,50,79,716,50,2014-10-01T07:45:00,0,28103663,197489
OK,47,85,716,47,2014-10-01T07:50:00,10,28104108,197489
OK,44,90,716,44,2014-10-01T07:55:00,10,28104553,197489
OK,47,85,716,47,2014-10-01T08:00:00,8,28104994,197489
OK,58,68,716,58,2014-10-01T08:05:00,6,28105439,197489
OK,54,74,716,54,2014-10-01T08:10:00,7,28105879,197489
OK,51,78,716,51,2014-10-01T08:15:00,6,28106328,197489
OK,46,86,716,46,2014-10-01T08:20:00,5,28106765,197489
OK,44,90,716,44,2014-10-01T08:25:00,5,28107171,197489
OK,42,95,716,42,2014-10-01T08:30:00,8,28107603,197489
OK,42,95,716,42,2014-10-01T08:35:00,8,28108052,197489
OK,42,95,716,42,2014-10-01T08:40:00,7,28108491,197489
OK,52,76,716,52,2014-10-01T08:45:00,6,28108940,197489
OK,51,78,716,51,2014-10-01T08:50:00,4,28109368,197489
OK,47,85,716,47,2014-10-01T09:00:00,3,28110160,197489
OK,44,90,716,44,2014-10-01T09:05:00,4,28110609,197489
OK,40,99,716,40,2014-10-01T09:10:00,6,28111032,197489
OK,42,95,716,42,2014-10-01T09:15:00,9,28111481,197489
OK,43,92,716,43,2014-10-01T09:20:00,6,28111910,197489
OK,48,83,716,48,2014-10-01T09:30:00,2,28112700,197489
OK,45,88,716,45,2014-10-01T09:35:00,14,28113149,197489
OK,45,88,716,45,2014-10-01T09:40:00,13,28113573,197489
OK,44,90,716,44,2014-10-01T09:45:00,3,28114022,197489
OK,47,85,716,47,2014-10-01T09:50:00,4,28114454,197489
OK,42,95,716,42,2014-10-01T10:00:00,6,28115257,197489
OK,46,86,716,46,2014-10-01T10:05:00,10,28115706,197489
OK,47,85,716,47,2014-10-01T10:10:00,8,28116118,197489
OK,49,81,716,49,2014-10-01T10:15:00,8,28116567,197489
OK,50,79,716,50,2014-10-01T10:20:00,7,28116975,197489
OK,44,90,716,44,2014-10-01T10:25:00,8,28117424,197489
OK,44,90,716,44,2014-10-01T10:30:00,8,28117849,197489
OK,47,85,716,47,2014-10-01T10:35:00,10,28118298,197489
OK,46,86,716,46,2014-10-01T10:40:00,12,28118743,197489
OK,46,86,716,46,2014-10-01T10:45:00,11,28119190,197489
OK,47,85,716,47,2014-10-01T10:50:00,12,28119634,197489
OK,49,81,716,49,2014-10-01T10:55:00,9,28120082,197489
OK,45,88,716,45,2014-10-01T11:00:00,8,28120530,197489
OK,46,86,716,46,2014-10-01T11:05:00,13,28120979,197489
OK,48,83,716,48,2014-10-01T11:10:00,11,28121362,197489
OK,46,86,716,46,2014-10-01T11:15:00,5,28121811,197489
OK,45,88,716,45,2014-10-01T11:20:00,10,28122249,197489
OK,46,86,716,46,2014-10-01T11:25:00,15,28122698,197489
OK,46,86,716,46,2014-10-01T11:30:00,14,28123139,197489
OK,46,86,716,46,2014-10-01T11:35:00,11,28123588,197489
OK,47,85,716,47,2014-10-01T11:40:00,13,28124020,197489
OK,45,88,716,45,2014-10-01T11:45:00,13,28124469,197489
OK,51,78,716,51,2014-10-01T11:50:00,6,28124871,197489
OK,45,88,716,45,2014-10-01T11:55:00,11,28125320,197489
OK,44,90,716,44,2014-10-01T12:00:00,15,28125749,197489
OK,45,88,716,45,2014-10-01T12:10:00,16,28126550,197489
OK,47,85,716,47,2014-10-01T12:15:00,22,28126999,197489
OK,47,85,716,47,2014-10-01T12:20:00,23,28127448,197489
OK,46,86,716,46,2014-10-01T12:25:00,22,28127897,197489
OK,45,88,716,45,2014-10-01T12:30:00,19,28128325,197489
OK,45,88,716,45,2014-10-01T12:35:00,17,28128774,197489
OK,47,85,716,47,2014-10-01T12:40:00,16,28129209,197489
OK,45,88,716,45,2014-10-01T12:45:00,9,28129658,197489
OK,46,86,716,46,2014-10-01T12:50:00,17,28130092,197489
OK,47,85,716,47,2014-10-01T12:55:00,21,28130541,197489
OK,45,88,716,45,2014-10-01T13:00:00,18,28130969,197489
OK,45,88,716,45,2014-10-01T13:05:00,13,28131418,197489
OK,51,78,716,51,2014-10-01T13:10:00,16,28131855,197489
OK,49,81,716,49,2014-10-01T13:15:00,34,28132304,197489
OK,47,85,716,47,2014-10-01T13:20:00,30,28132742,197489
OK,50,79,716,50,2014-10-01T13:25:00,15,28133189,197489
OK,48,83,716,48,2014-10-01T13:30:00,16,28133627,197489
OK,44,90,716,44,2014-10-01T13:35:00,14,28134076,197489
OK,48,83,716,48,2014-10-01T13:40:00,11,28134515,197489
OK,52,76,716,52,2014-10-01T13:45:00,17,28134964,197489
OK,51,78,716,51,2014-10-01T13:50:00,24,28135383,197489
OK,50,79,716,50,2014-10-01T13:55:00,21,28135832,197489
OK,48,83,716,48,2014-10-01T14:00:00,30,28136269,197489
OK,50,79,716,50,2014-10-01T14:05:00,19,28136718,197489
OK,51,78,716,51,2014-10-01T14:10:00,14,28137158,197489
OK,52,76,716,52,2014-10-01T14:15:00,16,28137607,197489
OK,67,59,716,67,2014-10-01T14:20:00,22,28138041,197489
OK,56,71,716,56,2014-10-01T14:25:00,23,28138490,197489
OK,46,86,716,46,2014-10-01T14:30:00,24,28138918,197489
OK,46,86,716,46,2014-10-01T14:35:00,19,28139367,197489
OK,42,95,716,42,2014-10-01T14:40:00,10,28139778,197489
OK,44,90,716,44,2014-10-01T14:45:00,9,28140227,197489
OK,48,83,716,48,2014-10-01T14:50:00,16,28140669,197489
OK,46,86,716,46,2014-10-01T14:55:00,12,28141117,197489
OK,45,88,716,45,2014-10-01T15:00:00,12,28141544,197489
OK,49,81,716,49,2014-10-01T15:05:00,10,28141993,197489
OK,50,79,716,50,2014-10-01T15:10:00,9,28142421,197489
OK,44,90,716,44,2014-10-01T15:15:00,7,28142870,197489
OK,50,79,716,50,2014-10-01T15:20:00,14,28143297,197489
OK,46,86,716,46,2014-10-01T15:25:00,13,28143746,197489
OK,46,86,716,46,2014-10-01T15:30:00,13,28144194,197489
OK,48,83,716,48,2014-10-01T15:35:00,9,28144643,197489
OK,42,95,716,42,2014-10-01T15:40:00,9,28145064,197489
OK,39,102,716,39,2014-10-01T15:45:00,11,28145478,197489
OK,39,102,716,39,2014-10-01T15:50:00,8,28145927,197489
OK,49,81,716,49,2014-10-01T15:55:00,2,28146376,197489
OK,41,97,716,41,2014-10-01T16:00:00,3,28146825,197489
OK,42,95,716,42,2014-10-01T16:05:00,5,28147233,197489
OK,47,85,716,47,2014-10-01T16:10:00,3,28147677,197489
OK,41,97,716,41,2014-10-01T16:15:00,4,28148126,197489
OK,44,90,716,44,2014-10-01T16:20:00,2,28148527,197489
OK,49,81,716,49,2014-10-01T16:25:00,4,28148976,197489
OK,44,90,716,44,2014-10-01T16:30:00,6,28149415,197489
OK,43,92,716,43,2014-10-01T16:35:00,2,28149864,197489
OK,49,81,716,49,2014-10-01T16:40:00,2,28150290,197489
OK,45,88,716,45,2014-10-01T16:45:00,3,28150739,197489
OK,45,88,716,45,2014-10-01T16:50:00,3,28151157,197489
OK,45,88,716,45,2014-10-01T16:55:00,4,28151606,197489
OK,45,88,716,45,2014-10-01T17:05:00,0,28152055,197489
OK,45,88,716,45,2014-10-01T17:10:00,0,28152504,197489
OK,41,97,716,41,2014-10-01T17:15:00,1,28152950,197489
OK,44,90,716,44,2014-10-01T17:20:00,3,28153397,197489
OK,53,75,716,53,2014-10-01T17:25:00,3,28153846,197489
OK,52,76,716,52,2014-10-01T17:30:00,3,28154256,197489
OK,43,92,716,43,2014-10-01T17:35:00,3,28154705,197489
OK,43,92,716,43,2014-10-01T17:40:00,4,28155147,197489
OK,43,92,716,43,2014-10-01T17:45:00,4,28155595,197489
OK,34,117,716,34,2014-10-01T17:50:00,3,28156013,197489
OK,33,121,716,33,2014-10-01T17:55:00,1,28156462,197489
OK,39,102,716,39,2014-10-01T18:00:00,1,28156910,197489
OK,33,121,716,33,2014-10-01T18:05:00,2,28157349,197489
OK,28,142,716,28,2014-10-01T18:10:00,1,28157779,197489
OK,28,142,716,28,2014-10-01T18:15:00,0,28158227,197489
OK,37,108,716,37,2014-10-01T18:20:00,3,28158671,197489
OK,43,92,716,43,2014-10-01T18:25:00,4,28159116,197489
OK,43,92,716,43,2014-10-01T18:35:00,2,28159898,197489
OK,43,92,716,43,2014-10-01T18:40:00,2,28160347,197489
OK,48,83,716,48,2014-10-01T18:45:00,5,28160796,197489
OK,51,78,716,51,2014-10-01T18:50:00,6,28161234,197489
OK,41,97,716,41,2014-10-01T18:55:00,3,28161683,197489
OK,31,128,716,31,2014-10-01T19:00:00,0,28162100,197489
OK,39,102,716,39,2014-10-01T19:05:00,1,28162549,197489
OK,42,95,716,42,2014-10-01T19:10:00,3,28162943,197489
OK,45,88,716,45,2014-10-01T19:15:00,4,28163382,197489
OK,52,76,716,52,2014-10-01T19:20:00,2,28163830,197489
OK,39,102,716,39,2014-10-01T19:25:00,1,28164279,197489
OK,39,102,716,39,2014-10-01T19:30:00,1,28164710,197489
OK,39,102,716,39,2014-10-01T19:35:00,0,28165159,197489
OK,42,95,716,42,2014-10-01T19:40:00,1,28165584,197489
OK,42,95,716,42,2014-10-01T19:45:00,2,28166032,197489
OK,48,83,716,48,2014-10-01T19:55:00,1,28166835,197489
OK,48,83,716,48,2014-10-01T20:00:00,1,28167284,197489
OK,48,83,716,48,2014-10-01T20:05:00,0,28167712,197489
OK,43,92,716,43,2014-10-01T20:10:00,1,28168146,197489
OK,44,90,716,44,2014-10-01T20:15:00,2,28168595,197489
OK,40,99,716,40,2014-10-01T20:20:00,1,28169040,197489
OK,41,97,716,41,2014-10-01T20:25:00,2,28169489,197489
OK,39,102,716,39,2014-10-01T20:30:00,2,28169937,197489
OK,34,117,716,34,2014-10-01T20:35:00,0,28170363,197489
OK,34,117,716,34,2014-10-01T20:40:00,0,28170808,197489
OK,55,72,716,55,2014-10-01T20:45:00,1,28171256,197489
OK,55,72,716,55,2014-10-01T20:50:00,0,28171693,197489
OK,44,90,716,44,2014-10-01T20:55:00,1,28172139,197489
OK,44,90,716,44,2014-10-01T21:00:00,1,28172587,197489
OK,44,90,716,44,2014-10-01T21:05:00,0,28173033,197489
OK,44,90,716,44,2014-10-01T21:10:00,0,28173479,197489
OK,44,90,716,44,2014-10-01T21:15:00,0,28173927,197489
OK,44,90,716,44,2014-10-01T21:20:00,0,28174369,197489
OK,44,90,716,44,2014-10-01T21:25:00,0,28175204,197489
OK,44,90,716,44,2014-10-01T21:35:00,0,28175640,197489
OK,44,90,716,44,2014-10-01T21:40:00,0,28176089,197489
OK,44,90,716,44,2014-10-01T21:45:00,0,28176538,197489
OK,44,90,716,44,2014-10-01T21:50:00,0,28176987,197489
OK,44,90,716,44,2014-10-01T21:55:00,0,28177343,197489
OK,44,90,716,44,2014-10-01T22:00:00,0,28177783,197489
OK,44,90,716,44,2014-10-01T22:05:00,0,28178229,197489
OK,44,90,716,44,2014-10-01T22:10:00,0,28178678,197489
OK,47,85,716,47,2014-10-01T22:15:00,2,28179125,197489
OK,46,86,716,46,2014-10-01T22:20:00,1,28179559,197489
OK,46,86,716,46,2014-10-01T22:25:00,0,28180002,197489
OK,46,86,716,46,2014-10-01T22:35:00,0,28180847,197489
OK,37,108,716,37,2014-10-01T22:40:00,2,28181720,197489
OK,43,92,716,43,2014-10-01T22:45:00,1,28182168,197489
OK,43,92,716,43,2014-10-01T22:55:00,0,28182615,197489
OK,43,92,716,43,2014-10-01T23:00:00,0,28183472,197489
OK,43,92,716,43,2014-10-01T23:05:00,0,28183911,197489
OK,43,92,716,43,2014-10-01T23:10:00,0,28184359,197489
OK,43,92,716,43,2014-10-01T23:15:00,0,28184805,197489
OK,43,92,716,43,2014-10-01T23:20:00,0,28185242,197489
OK,43,92,716,43,2014-10-01T23:25:00,0,28185684,197489
OK,43,92,716,43,2014-10-01T23:30:00,0,28186066,197489
OK,43,92,716,43,2014-10-01T23:35:00,0,28186514,197489
OK,43,92,716,43,2014-10-01T23:40:00,0,28186917,197489
OK,43,92,716,43,2014-10-01T23:45:00,0,28187354,197489
OK,43,92,716,43,2014-10-01T23:50:00,0,28187803,197489
OK,43,92,716,43,2014-10-01T23:55:00,0,28188244,197489
OK,43,92,716,43,2014-10-02T00:00:00,0,28188680,197489
OK,43,92,716,43,2014-10-02T00:10:00,0,28189129,197489
OK,43,92,716,43,2014-10-02T00:15:00,0,28189578,197489
OK,43,92,716,43,2014-10-02T00:20:00,0,28190000,197489
OK,43,92,716,43,2014-10-02T00:30:00,0,28190802,197489
OK,42,95,716,42,2014-10-02T00:35:00,2,28191251,197489
OK,42,95,716,42,2014-10-02T00:45:00,0,28192006,197489
OK,42,95,716,42,2014-10-02T00:50:00,0,28192455,197489
OK,42,95,716,42,2014-10-02T00:55:00,0,28192888,197489
OK,42,95,716,42,2014-10-02T01:05:00,0,28193699,197489
OK,42,95,716,42,2014-10-02T01:10:00,0,28194148,197489
OK,42,95,716,42,2014-10-02T01:15:00,0,28194597,197489
OK,42,95,716,42,2014-10-02T01:25:00,0,28195282,197489
OK,42,95,716,42,2014-10-02T01:30:00,0,28195731,197489
OK,42,95,716,42,2014-10-02T01:35:00,0,28196180,197489
OK,42,95,716,42,2014-10-02T01:40:00,0,28196464,197489
OK,42,95,716,42,2014-10-02T01:45:00,0,28196913,197489
OK,42,95,716,42,2014-10-02T01:50:00,0,28197336,197489
OK,47,85,716,47,2014-10-02T01:55:00,0,28197785,197489
OK,47,85,716,47,2014-10-02T02:00:00,0,28198233,197489
OK,47,85,716,47,2014-10-02T02:05:00,0,28198681,197489
OK,47,85,716,47,2014-10-02T02:10:00,0,28199130,197489
OK,47,85,716,47,2014-10-02T02:15:00,0,28199502,197489
OK,47,85,716,47,2014-10-02T02:20:00,0,28199944,197489
OK,47,85,716,47,2014-10-02T02:25:00,0,28200386,197489
OK,47,85,716,47,2014-10-02T02:30:00,0,28200829,197489
OK,47,85,716,47,2014-10-02T02:35:00,0,28201278,197489
OK,53,75,716,53,2014-10-02T02:45:00,0,28201709,197489
OK,49,81,716,49,2014-10-02T02:50:00,2,28202158,197489
OK,46,86,716,46,2014-10-02T02:55:00,0,28202607,197489
OK,46,86,716,46,2014-10-02T03:00:00,0,28203049,197489
OK,46,86,716,46,2014-10-02T03:05:00,0,28203497,197489
OK,45,88,716,45,2014-10-02T03:10:00,2,28203932,197489
OK,49,81,716,49,2014-10-02T03:30:00,0,28204381,197489
OK,49,81,716,49,2014-10-02T03:35:00,0,28204830,197489
OK,49,81,716,49,2014-10-02T03:40:00,0,28205279,197489
OK,49,81,716,49,2014-10-02T03:45:00,0,28205707,197489
OK,49,81,716,49,2014-10-02T03:55:00,0,28206537,197489
OK,49,81,716,49,2014-10-02T04:00:00,0,28206986,197489
OK,49,81,716,49,2014-10-02T04:05:00,0,28207435,197489
OK,46,86,716,46,2014-10-02T04:10:00,3,28207854,197489
OK,48,83,716,48,2014-10-02T04:15:00,0,28208303,197489
OK,43,92,716,43,2014-10-02T04:20:00,4,28208730,197489
OK,42,95,716,42,2014-10-02T04:25:00,0,28209179,197489
OK,54,74,716,54,2014-10-02T04:30:00,2,28209617,197489
OK,52,76,716,52,2014-10-02T04:35:00,1,28210066,197489
OK,52,76,716,52,2014-10-02T04:40:00,3,28210489,197489
OK,52,76,716,52,2014-10-02T04:45:00,0,28210938,197489
OK,52,76,716,52,2014-10-02T04:50:00,0,28211363,197489
OK,56,71,716,56,2014-10-02T05:00:00,3,28212185,197489
OK,42,95,716,42,2014-10-02T05:05:00,8,28212634,197489
OK,41,97,716,41,2014-10-02T05:10:00,3,28213063,197489
OK,48,83,716,48,2014-10-02T05:15:00,5,28213512,197489
OK,39,102,716,39,2014-10-02T05:20:00,0,28213950,197489
OK,51,78,716,51,2014-10-02T05:25:00,14,28214399,197489
OK,47,85,716,47,2014-10-02T05:30:00,7,28214812,197489
OK,46,86,716,46,2014-10-02T05:35:00,0,28215261,197489
OK,44,90,716,44,2014-10-02T05:40:00,8,28215677,197489
OK,45,88,716,45,2014-10-02T05:45:00,3,28216126,197489
OK,47,85,716,47,2014-10-02T05:50:00,0,28216465,197489
OK,52,76,716,52,2014-10-02T05:55:00,15,28216905,197489
OK,48,83,716,48,2014-10-02T06:00:00,13,28217352,197489
OK,47,85,716,47,2014-10-02T06:05:00,9,28217801,197489
OK,50,79,716,50,2014-10-02T06:10:00,1,28218240,197489
OK,47,85,716,47,2014-10-02T06:15:00,18,28218689,197489
OK,46,86,716,46,2014-10-02T06:20:00,15,28219109,197489
OK,45,88,716,45,2014-10-02T06:30:00,16,28219931,197489
OK,46,86,716,46,2014-10-02T06:35:00,14,28220380,197489
OK,49,81,716,49,2014-10-02T06:40:00,9,28220814,197489
OK,51,78,716,51,2014-10-02T06:45:00,9,28221263,197489
OK,43,92,716,43,2014-10-02T07:00:00,12,28221930,197489
OK,43,92,716,43,2014-10-02T07:05:00,10,28222075,197489
OK,43,92,716,43,2014-10-02T07:10:00,7,28222524,197489
OK,50,79,716,50,2014-10-02T07:15:00,1,28222973,197489
OK,50,79,716,50,2014-10-02T07:20:00,0,28223404,197489
OK,48,83,716,48,2014-10-02T07:25:00,7,28223839,197489
OK,47,85,716,47,2014-10-02T07:35:00,15,28224642,197489
OK,47,85,716,47,2014-10-02T07:40:00,1,28225091,197489
OK,47,85,716,47,2014-10-02T07:50:00,7,28225862,197489
OK,52,76,716,52,2014-10-02T07:55:00,6,28226311,197489
OK,50,79,716,50,2014-10-02T08:00:00,1,28226752,197489
OK,45,88,716,45,2014-10-02T08:05:00,6,28227201,197489
OK,51,78,716,51,2014-10-02T08:10:00,2,28227616,197489
OK,51,78,716,51,2014-10-02T08:20:00,2,28228424,197489
OK,44,90,716,44,2014-10-02T08:25:00,4,28228873,197489
OK,44,90,716,44,2014-10-02T08:30:00,1,28229283,197489
OK,51,78,716,51,2014-10-02T08:40:00,1,28230082,197489
OK,51,78,716,51,2014-10-02T08:45:00,0,28230531,197489
OK,50,79,716,50,2014-10-02T08:50:00,2,28230897,197489
OK,48,83,716,48,2014-10-02T08:55:00,1,28231344,197489
OK,42,95,716,42,2014-10-02T09:00:00,12,28231769,197489
OK,46,86,716,46,2014-10-02T09:15:00,7,28232560,197489
OK,46,86,716,46,2014-10-02T09:20:00,1,28233009,197489
OK,44,90,716,44,2014-10-02T09:25:00,6,28233458,197489
OK,47,85,716,47,2014-10-02T09:30:00,1,28233882,197489
OK,58,68,716,58,2014-10-02T09:40:00,1,28234664,197489
OK,49,81,716,49,2014-10-02T09:45:00,6,28235113,197489
OK,48,83,716,48,2014-10-02T09:50:00,3,28235540,197489
OK,42,95,716,42,2014-10-02T09:55:00,6,28235989,197489
OK,41,97,716,41,2014-10-02T10:00:00,2,28236432,197489
OK,41,97,716,41,2014-10-02T10:05:00,0,28236879,197489
OK,45,88,716,45,2014-10-02T10:10:00,7,28237281,197489
OK,43,92,716,43,2014-10-02T10:15:00,9,28237729,197489
OK,48,83,716,48,2014-10-02T10:20:00,10,28238178,197489
OK,50,79,716,50,2014-10-02T10:25:00,4,28238625,197489
OK,47,85,716,47,2014-10-02T10:30:00,0,28239066,197489
OK,49,81,716,49,2014-10-02T10:35:00,9,28239515,197489
OK,50,79,716,50,2014-10-02T10:40:00,4,28239945,197489
OK,50,79,716,50,2014-10-02T10:45:00,5,28240394,197489
OK,47,85,716,47,2014-10-02T10:50:00,2,28240838,197489
OK,49,81,716,49,2014-10-02T10:55:00,14,28241287,197489
OK,51,78,716,51,2014-10-02T11:00:00,8,28241719,197489
OK,53,75,716,53,2014-10-02T11:05:00,0,28242167,197489
OK,48,83,716,48,2014-10-02T11:10:00,16,28242563,197489
OK,48,83,716,48,2014-10-02T11:15:00,9,28243012,197489
OK,46,86,716,46,2014-10-02T11:20:00,11,28243461,197489
OK,41,97,716,41,2014-10-02T11:25:00,2,28243786,197489
OK,41,97,716,41,2014-10-02T11:30:00,0,28244224,197489
OK,46,86,716,46,2014-10-02T11:35:00,10,28244653,197489
OK,45,88,716,45,2014-10-02T11:40:00,5,28245102,197489
OK,44,90,716,44,2014-10-02T11:45:00,0,28245551,197489
OK,50,79,716,50,2014-10-02T11:50:00,12,28245957,197489
OK,51,78,716,51,2014-10-02T11:55:00,13,28246406,197489
OK,47,85,716,47,2014-10-02T12:00:00,10,28246843,197489
OK,39,102,716,39,2014-10-02T12:05:00,2,28247291,197489
OK,40,99,716,40,2014-10-02T12:10:00,0,28247738,197489
OK,50,79,716,50,2014-10-02T12:15:00,13,28248168,197489
OK,54,74,716,54,2014-10-02T12:20:00,5,28248617,197489
OK,48,83,716,48,2014-10-02T12:25:00,14,28249064,197489
OK,49,81,716,49,2014-10-02T12:30:00,5,28249492,197489
OK,45,88,716,45,2014-10-02T12:35:00,8,28249936,197489
OK,45,88,716,45,2014-10-02T12:40:00,4,28250742,197489
OK,51,78,716,51,2014-10-02T12:45:00,8,28251084,197489
OK,48,83,716,48,2014-10-02T13:20:00,15,28251613,197489
OK,47,85,716,47,2014-10-02T13:30:00,15,28252078,197489
OK,47,85,716,47,2014-10-02T13:35:00,2,28252215,197489
OK,47,85,716,47,2014-10-02T13:40:00,0,28252662,197489
OK,54,74,716,54,2014-10-02T13:50:00,18,28253521,197489
OK,49,81,716,49,2014-10-02T13:55:00,20,28253970,197489
OK,53,75,716,53,2014-10-02T14:10:00,20,28254701,197489
OK,48,83,716,48,2014-10-02T14:15:00,16,28254824,197489
OK,54,74,716,54,2014-10-02T14:20:00,22,28255273,197489
OK,55,72,716,55,2014-10-02T14:25:00,8,28255722,197489
OK,50,79,716,50,2014-10-02T14:30:00,20,28256150,197489
OK,49,81,716,49,2014-10-02T14:35:00,16,28256599,197489
OK,50,79,716,50,2014-10-02T14:40:00,5,28257027,197489
OK,51,78,716,51,2014-10-02T14:45:00,17,28257476,197489
OK,49,81,716,49,2014-10-02T14:50:00,17,28257917,197489
OK,47,85,716,47,2014-10-02T14:55:00,13,28258365,197489
OK,46,86,716,46,2014-10-02T15:00:00,15,28258798,197489
OK,46,86,716,46,2014-10-02T15:05:00,5,28259244,197489
OK,45,88,716,45,2014-10-02T15:10:00,7,28259692,197489
OK,45,88,716,45,2014-10-02T15:15:00,7,28260140,197489
OK,51,78,716,51,2014-10-02T15:20:00,4,28260573,197489
OK,43,92,716,43,2014-10-02T15:25:00,12,28261020,197489
OK,47,85,716,47,2014-10-02T15:35:00,2,28261825,197489
OK,47,85,716,47,2014-10-02T15:40:00,0,28262274,197489
OK,41,97,716,41,2014-10-02T15:45:00,9,28262721,197489
OK,40,99,716,40,2014-10-02T15:50:00,4,28263167,197489
OK,38,105,716,38,2014-10-02T15:55:00,0,28264012,197489
OK,41,97,716,41,2014-10-02T16:05:00,5,28264448,197489
OK,43,92,716,43,2014-10-02T16:10:00,5,28264897,197489
OK,45,88,716,45,2014-10-02T16:15:00,1,28265335,197489
OK,39,102,716,39,2014-10-02T16:25:00,2,28266171,197489
OK,41,97,716,41,2014-10-02T16:30:00,2,28266620,197489
OK,38,105,716,38,2014-10-02T16:35:00,1,28267392,197489
OK,49,81,716,49,2014-10-02T16:45:00,1,28267841,197489
OK,49,81,716,49,2014-10-02T16:50:00,0,28268290,197489
OK,49,81,716,49,2014-10-02T16:55:00,0,28268732,197489
OK,41,97,716,41,2014-10-02T17:00:00,7,28269181,197489
OK,42,95,716,42,2014-10-02T17:05:00,2,28269630,197489
OK,39,102,716,39,2014-10-02T17:10:00,0,28270065,197489
OK,39,102,716,39,2014-10-02T17:15:00,0,28270514,197489
OK,39,102,716,39,2014-10-02T17:20:00,6,28270948,197489
OK,39,102,716,39,2014-10-02T17:25:00,3,28271397,197489
OK,42,95,716,42,2014-10-02T17:30:00,1,28271826,197489
OK,42,95,716,42,2014-10-02T17:35:00,0,28272275,197489
OK,42,95,716,42,2014-10-02T17:40:00,0,28272710,197489
OK,44,90,716,44,2014-10-02T17:45:00,2,28273152,197489